Big Bear City, CA

12:10 PM PST on November 19, 2019 (GMT -0800)
Big Bear City

Weather History for KL35 - May, 2019

Change the Weather History Date:

Wednesday, May 8, 2019

  Actual Average (WUND) Record (WUND)
Temperature  
Mean Temperature 48 °F -  
Max Temperature 62 °F - - (-1)
Min Temperature 33 °F - - (-1)
Degree Days  
Heating Degree Days 18    
Moisture  
Dew Point 27 °F    
Average Humidity 49    
Maximum Humidity 87    
Minimum Humidity 22    
Precipitation  
Precipitation 0.00 in - - ()
Sea Level Pressure  
Sea Level Pressure 30.05 in    
Wind  
Wind Speed 2 mph (NNW)    
Max Wind Speed 13 mph    
Max Gust Speed 37 mph    
Visibility 10 miles    
Events      
Averages and records for this station are not official NWS values.
T = Trace of Precipitation, MM = Missing Value Source: NWS Daily Summary

Daily Weather History Graph

Daily Weather History Graph

Search for Another Location

Airport or City:

Astronomy

May. 08, 2019 Rise Set
Actual Time 5:51 AM PDT 7:37 PM PDT
Civil Twilight 5:24 AM PDT 8:04 PM PDT
Nautical Twilight 4:51 AM PDT 8:37 PM PDT
Astronomical Twilight 4:16 AM PDT 9:12 PM PDT
Moon 8:56 AM PDT (5/8) 11:37 PM PDT (5/8)
Length of Visible Light 14h 40m
Length of Day
13h 45m
Waxing Crescent, 16% of the Moon is Illuminated
May 8
Waxing Crescent
May 11
First Quarter
May 18
Full
May 26
Last Quarter
Jun 3
New

Hourly Weather History & Observations

Time (PDT) Temp. Dew Point Humidity Pressure Visibility Wind Dir Wind Speed Gust Speed Precip Events Conditions
12:15 AM 42.8 °F 32.0 °F 66% 30.08 in 10.0 mi Calm Calm - N/A   Clear
12:35 AM 41.0 °F 32.0 °F 70% 30.08 in 10.0 mi Calm Calm - N/A   Clear
12:55 AM 39.2 °F 32.0 °F 75% 30.08 in 10.0 mi Calm Calm - N/A   Clear
1:15 AM 41.0 °F 32.0 °F 70% 30.08 in 10.0 mi Calm Calm - N/A   Clear
1:35 AM 37.4 °F 32.0 °F 81% 30.07 in 10.0 mi Calm Calm - N/A   Clear
1:55 AM 37.4 °F 32.0 °F 81% 30.07 in 10.0 mi Calm Calm - N/A   Clear
2:15 AM 37.4 °F 32.0 °F 81% 30.07 in 10.0 mi Calm Calm - N/A   Clear
2:35 AM 35.6 °F 30.2 °F 81% 30.07 in 10.0 mi Calm Calm - N/A   Clear
2:55 AM 35.6 °F 30.2 °F 81% 30.06 in 10.0 mi Calm Calm - N/A   Clear
3:15 AM 35.6 °F 30.2 °F 81% 30.06 in 10.0 mi Calm Calm - N/A   Clear
3:35 AM 35.6 °F 30.2 °F 81% 30.07 in 10.0 mi Calm Calm - N/A   Clear
3:55 AM 35.6 °F 30.2 °F 81% 30.08 in 10.0 mi Calm Calm - N/A   Scattered Clouds
4:15 AM 35.6 °F 30.2 °F 81% 30.07 in 10.0 mi Calm Calm - N/A   Scattered Clouds
4:35 AM 35.6 °F 30.2 °F 81% 30.07 in 10.0 mi Calm Calm - N/A   Clear
4:55 AM 33.8 °F 30.2 °F 87% 30.07 in 10.0 mi Calm Calm - N/A   Clear
5:15 AM 33.8 °F 30.2 °F 87% 30.08 in 10.0 mi Calm Calm - N/A   Clear
5:35 AM 33.8 °F 30.2 °F 87% 30.08 in 10.0 mi Calm Calm - N/A   Clear
5:55 AM 33.8 °F 30.2 °F 87% 30.08 in 10.0 mi Calm Calm - N/A   Clear
6:15 AM 33.8 °F 30.2 °F 87% 30.08 in 10.0 mi Calm Calm - N/A   Clear
6:35 AM 33.8 °F 30.2 °F 87% 30.08 in 10.0 mi Calm Calm - N/A   Clear
6:55 AM 33.8 °F 30.2 °F 87% 30.09 in 10.0 mi Calm Calm - N/A   Clear
7:15 AM 33.8 °F 30.2 °F 87% 30.09 in 10.0 mi Calm Calm - N/A   Clear
7:35 AM 37.4 °F 32.0 °F 81% 30.10 in 10.0 mi Calm Calm - N/A   Clear
7:55 AM 42.8 °F 32.0 °F 66% 30.10 in 10.0 mi Calm Calm - N/A   Clear
8:15 AM 51.8 °F 30.2 °F 44% 30.09 in 10.0 mi Calm Calm - N/A   Scattered Clouds
8:35 AM 53.6 °F 23.0 °F 30% 30.09 in 10.0 mi NNW 3.5 mph - N/A   Scattered Clouds
8:55 AM 55.4 °F 23.0 °F 29% 30.09 in 10.0 mi North 5.8 mph - N/A   Scattered Clouds
9:15 AM 55.4 °F 21.2 °F 26% 30.09 in 10.0 mi North 5.8 mph - N/A   Scattered Clouds
9:35 AM 55.4 °F 21.2 °F 26% 30.09 in 10.0 mi NNE 5.8 mph - N/A   Scattered Clouds
9:55 AM 57.2 °F 19.4 °F 23% 30.09 in 10.0 mi NW 6.9 mph - N/A   Clear
10:15 AM 57.2 °F 19.4 °F 23% 30.09 in 10.0 mi NNE 6.9 mph 16.1 mph N/A   Scattered Clouds
10:35 AM 59.0 °F 21.2 °F 23% 30.10 in 10.0 mi NNE 9.2 mph 17.3 mph N/A   Scattered Clouds
10:55 AM 59.0 °F 21.2 °F 23% 30.10 in 10.0 mi ENE 9.2 mph 25.3 mph N/A   Clear
11:15 AM 59.0 °F 21.2 °F 23% 30.09 in 10.0 mi NNE 9.2 mph - N/A   Clear
11:35 AM 59.0 °F 21.2 °F 23% 30.10 in 10.0 mi NNW 9.2 mph - N/A   Clear
11:55 AM 59.0 °F 21.2 °F 23% 30.09 in 10.0 mi North 12.7 mph 20.7 mph N/A   Clear
12:15 PM 59.0 °F 23.0 °F 25% 30.09 in 10.0 mi NNE 8.1 mph 20.7 mph N/A   Clear
12:35 PM 59.0 °F 23.0 °F 25% 30.08 in 10.0 mi North 5.8 mph 18.4 mph N/A   Clear
12:55 PM 60.8 °F 23.0 °F 23% 30.08 in 10.0 mi NNW 9.2 mph - N/A   Clear
1:15 PM 60.8 °F 24.8 °F 25% 30.07 in 10.0 mi North 9.2 mph - N/A   Clear
1:35 PM 60.8 °F 26.6 °F 27% 30.06 in 10.0 mi ESE 4.6 mph 10.4 mph N/A   Clear
1:55 PM 60.8 °F 26.6 °F 27% 30.05 in 10.0 mi North 4.6 mph - N/A   Clear
2:15 PM 62.6 °F 26.6 °F 26% 30.04 in 10.0 mi SSW 8.1 mph 36.8 mph N/A   Clear
2:35 PM 62.6 °F 26.6 °F 26% 30.04 in 10.0 mi NW 8.1 mph - N/A   Clear
2:55 PM 62.6 °F 24.8 °F 24% 30.03 in 10.0 mi NNE 5.8 mph - N/A   Clear
3:15 PM 62.6 °F 23.0 °F 22% 30.03 in 10.0 mi NW 12.7 mph 17.3 mph N/A   Clear
3:35 PM 62.6 °F 26.6 °F 26% 30.02 in 10.0 mi NNW 9.2 mph 18.4 mph N/A   Clear
3:55 PM 62.6 °F 26.6 °F 26% 30.01 in 10.0 mi NNW 4.6 mph - N/A   Clear
4:15 PM 62.6 °F 26.6 °F 26% 30.01 in 10.0 mi West 4.6 mph 16.1 mph N/A   Clear
4:35 PM 62.6 °F 28.4 °F 27% 30.00 in 10.0 mi West 11.5 mph 16.1 mph N/A   Clear
4:55 PM 62.6 °F 26.6 °F 26% 30.01 in 10.0 mi NW 4.6 mph 17.3 mph N/A   Clear
5:15 PM 60.8 °F 26.6 °F 27% 30.01 in 10.0 mi North 6.9 mph - N/A   Clear
5:35 PM 62.6 °F 26.6 °F 26% 30.00 in 10.0 mi NNW 4.6 mph - N/A   Clear
5:55 PM 60.8 °F 28.4 °F 29% 30.00 in 10.0 mi NW 6.9 mph 16.1 mph N/A   Clear
6:15 PM 60.8 °F 28.4 °F 29% 30.00 in 10.0 mi NNW 6.9 mph - N/A   Clear
6:35 PM 60.8 °F 26.6 °F 27% 30.00 in 10.0 mi Calm Calm - N/A   Clear
6:55 PM 59.0 °F 26.6 °F 29% 30.00 in 10.0 mi NNW 4.6 mph - N/A   Clear
7:15 PM 59.0 °F 28.4 °F 31% 30.00 in 10.0 mi West 3.5 mph - N/A   Clear
7:35 PM 57.2 °F 28.4 °F 33% 30.00 in 10.0 mi Calm Calm - N/A   Clear
7:55 PM 55.4 °F 28.4 °F 36% 30.00 in 10.0 mi Calm Calm - N/A   Clear
8:15 PM 53.6 °F 30.2 °F 41% 30.00 in 10.0 mi Calm Calm - N/A   Clear
8:35 PM 51.8 °F 30.2 °F 44% 30.01 in 10.0 mi WSW 3.5 mph - N/A   Clear
8:55 PM 50.0 °F 30.2 °F 47% 30.01 in 10.0 mi Calm Calm - N/A   Clear
9:15 PM 48.2 °F 28.4 °F 46% 30.01 in 10.0 mi Calm Calm - N/A   Clear
9:35 PM 46.4 °F 28.4 °F 50% 30.02 in 10.0 mi Calm Calm - N/A   Clear
9:55 PM 44.6 °F 28.4 °F 53% 30.02 in 10.0 mi Calm Calm - N/A   Clear
10:15 PM 42.8 °F 28.4 °F 57% 30.02 in 10.0 mi Calm Calm - N/A   Clear
10:35 PM 42.8 °F 28.4 °F 57% 30.01 in 10.0 mi Calm Calm - N/A   Clear
10:55 PM 42.8 °F 26.6 °F 53% 30.01 in 10.0 mi Calm Calm - N/A   Clear
11:15 PM 41.0 °F 26.6 °F 57% 30.01 in 10.0 mi Calm Calm - N/A   Clear
11:35 PM 39.2 °F 26.6 °F 61% 30.01 in 10.0 mi Calm Calm - N/A   Clear
11:55 PM 39.2 °F 26.6 °F 61% 30.01 in 10.0 mi Calm Calm - N/A   Clear